This is the latest recevied weather packets stored in our database for station/object DG7AA-13. If no packets are shown the sender has not sent any weather packets the latest 10 day(s).
| Time | Temp. | Humidity | Pressure | Rain* | Wind** | Luminosity | Snow |
|---|---|---|---|---|---|---|---|
| 1777525523 | 0° C | 94% | - | 0 mm | - | - | - |
| 1777524931 | -0.56° C | 94% | - | 0 mm | - | - | - |
| 1777524323 | -1.11° C | 93% | - | 0 mm | - | - | - |
| 1777523726 | -1.11° C | 92% | - | 0 mm | - | - | - |
| 1777523123 | -1.11° C | 92% | - | 0 mm | - | - | - |
| 1777522529 | -1.11° C | 91% | - | 0 mm | - | - | - |
| 1777521938 | -1.11° C | 91% | - | 0 mm | - | - | - |
| 1777521331 | -1.11° C | 90% | - | 0 mm | - | - | - |
| 1777520724 | -1.11° C | 90% | - | 0 mm | - | - | - |
| 1777520134 | -0.56° C | 89% | - | 0 mm | - | - | - |
| 1777519523 | 0° C | 88% | - | 0 mm | - | - | - |
| 1777518924 | 0° C | 89% | - | 0 mm | - | - | - |
| 1777518323 | -0.56° C | 89% | - | 0 mm | - | - | - |
| 1777517722 | -0.56° C | 89% | - | 0 mm | - | - | - |
| 1777517123 | -0.56° C | 89% | - | 0 mm | - | - | - |
| 1777516526 | -0.56° C | 88% | - | 0 mm | - | - | - |
| 1777515922 | 0° C | 88% | - | 0 mm | - | - | - |
| 1777515331 | 0° C | 88% | - | 0 mm | - | - | - |
| 1777514722 | 0° C | 87% | - | 0 mm | - | - | - |
| 1777514134 | 0° C | 85% | - | 0 mm | - | - | - |
| 1777513523 | 1.11° C | 83% | - | 0 mm | - | - | - |
| 1777512931 | 1.11° C | 85% | - | 0 mm | - | - | - |
| 1777511731 | 1.11° C | 84% | - | 0 mm | - | - | - |
| 1777511126 | 1.11° C | 83% | - | 0 mm | - | - | - |
| 1777509331 | 2.22° C | 80% | - | 0 mm | - | - | - |
* Rain latest hour (hover to see other rain measurements)
** Current wind speed in m/s (hover to see current wind gust speed)